STARLINK-30524, 57965

Orbit data source: Space-Track

STARLINK-30524, 57965 is a payload satellite owned by SpaceX/Seattle (US) in LEO that was launched on Sat, 30 Sep 2023 UTC via an FALCON 9 launch vehicle from the Air Force Eastern Test Range (AFETR). Payload-class satellites include a variety of spacecraft equipped with specific instruments for various scientific and technological missions. These include communications satellites like Starlink; space stations such as the ISS; scientific satellites like the Hubble; Earth observation satellites from companies like Planet Labs, Umbra, and HawkEye 360; GPS; miniature CubeSats for education and research; and military/defense satellites.

Loading next visibility...
Identifier
57965, 2023-151B
Orbit
LEO
Country
Flag of USUS
Related business
Manufacturer
SpaceX/Seattle
Mission
Operational Commercial Communications
Bus & Motor
STARLINK V2M, Unknown motor
Mass
730 kg wet, ~700 kg dry
Launch date (UTC)
2023-09-30 (3 years ago)
Launch vehicle
FALCON 9
Launch site
Air Force Eastern Test Range (AFETR)
Object type
Payload
Rocket body
Debris
Shape & HBR
Box + 2 Pan, 17.7 m
Radar Cross Section
33.884 m², Large (>1 m²)

Expand to show TLE details & history
Last TLE update: 11 hours ago

TLE from 11 hours ago
0 STARLINK-30524
1 57965U 23151B   26236.92753120  .00000674  00000-0  34021-4 0  9993
2 57965  43.0002 106.1152 0001337 269.3280  90.7419 15.27573969161498
Epoch: 2026-08-24T22:15Z
TLE epoch observation values (Epoch: 2026-08-24T22:15:38.695Z)
Latitude
0.00001°
Longitude
159.00177°
Altitude
482.855 km
Speed
7.626 km/s
True Right ascension
07h 04m 27s
True Declination
0° 00' 00"
Sunlit
Object was in daylight at epoch
Visualization orbit readout
Latitude
Unknown
Longitude
Unknown
Altitude
Unknown
Speed
Unknown
Apparent Right ascension
Unknown
Apparent Declination
Unknown
Sunlit
N/A
Visualization observer readout
Local Sidereal Time
00:48:02
Azimuth
Unknown
Elevation
Unknown
Doppler factor
Unknown
Orbital elements
Apogee altitude
485.93 km
Perigee altitude
484.095 km
Semi-major axis
6,863.149 km
Eccentricity
0.00013
Inclination
43.0002°
RAAN
106.1152°
Arg. of periapsis
269.328°
True anomaly
90.75722°
Mean anomaly
90.7419°
Eccentric anomaly
90.74956°
Mean motion
3.81732 °/min
Orbital period
94.31 mins
BSTAR
0.000034021
Loading maneuver chart data...
Computing Atmospheric mass density...
Loading historical data...
Loading historical data...
Loading historical data...
Loading historical data...
Loading historical data...
Loading historical data...
Loading historical data...

Documentation

Showing up to 5 results
|